This is the latest recevied weather packets stored in our database for station/object KC3ELT-10. If no packets are shown the sender has not sent any weather packets the latest 10 day(s).
| Time | Temp. | Humidity | Pressure | Rain* | Wind** | Luminosity | Snow |
|---|---|---|---|---|---|---|---|
| 1777890779 | 7.78° C | 54% | 1009.4 hPa | 0 mm | 0.89 m/s, 193° | - | - |
| 1777890479 | 7.78° C | 54% | 1008.1 hPa | 0 mm | 0 m/s | - | - |
| 1777890179 | 8.33° C | 53% | 1008.1 hPa | 0 mm | 0.89 m/s, 199° | - | - |
| 1777889879 | 8.33° C | 53% | 1008.1 hPa | 0 mm | 0.89 m/s, 219° | - | - |
| 1777889579 | 7.78° C | 54% | 1008.2 hPa | 0 mm | 1.34 m/s, 194° | - | - |
| 1777889279 | 7.78° C | 53% | 1008.2 hPa | 0 mm | 0.89 m/s, 227° | - | - |
| 1777888979 | 7.78° C | 54% | 1008.2 hPa | 0 mm | 0.89 m/s, 206° | - | - |
| 1777888679 | 7.78° C | 54% | 1008 hPa | 0 mm | 1.34 m/s, 205° | - | - |
| 1777888379 | 7.78° C | 54% | 1008 hPa | 0 mm | 1.34 m/s, 224° | - | - |
| 1777888079 | 7.78° C | 54% | 1008 hPa | 0 mm | 0.45 m/s, 194° | - | - |
| 1777887779 | 7.78° C | 54% | 1008.1 hPa | 0 mm | 0.45 m/s, 266° | - | - |
| 1777887479 | 7.78° C | 54% | 1008.1 hPa | 0 mm | 1.34 m/s, 204° | - | - |
| 1777887179 | 7.78° C | 54% | 1008.1 hPa | 0 mm | 0.89 m/s, 233° | - | - |
| 1777886879 | 7.78° C | 54% | 1008.1 hPa | 0 mm | 1.34 m/s, 201° | - | - |
| 1777886579 | 8.33° C | 53% | 1008.1 hPa | 0 mm | 1.79 m/s, 196° | - | - |
| 1777886279 | 7.78° C | 53% | 1008.1 hPa | 0 mm | 2.68 m/s, 231° | - | - |
| 1777885979 | 7.78° C | 54% | 1008.2 hPa | 0 mm | 0.89 m/s, 224° | - | - |
| 1777885679 | 7.78° C | 54% | 1008.2 hPa | 0 mm | 0.89 m/s, 224° | - | - |
| 1777885379 | 7.78° C | 54% | 1008.2 hPa | 0 mm | 1.34 m/s, 205° | - | - |
| 1777885079 | 7.78° C | 55% | 1008.1 hPa | 0 mm | 0.89 m/s, 214° | - | - |
| 1777884779 | 7.78° C | 54% | 1008.1 hPa | 0 mm | 1.34 m/s, 210° | - | - |
| 1777884479 | 7.78° C | 54% | 1008.1 hPa | 0 mm | 0.89 m/s, 182° | - | - |
| 1777884179 | 8.33° C | 54% | 1008.2 hPa | 0 mm | 0.45 m/s, 178° | - | - |
| 1777883879 | 8.33° C | 53% | 1008.2 hPa | 0 mm | 0.45 m/s, 211° | - | - |
| 1777883579 | 8.33° C | 53% | 1008.2 hPa | 0 mm | 0.45 m/s, 242° | - | - |
* Rain latest hour (hover to see other rain measurements)
** Current wind speed in m/s (hover to see current wind gust speed)